GLO1182 SBBR-SBRB

Flight info

Callsign GLO1182
Flight time 3h 4m
Altitude 34000
Route PABUM UZ98 BUVKI UZ76 ESMAL DCT
Aircraft B38M/M-SDFGHIJ4J7KLORWXY/LB1

Departure

Time 2026-05-07 14:34
Airport Presidente Juscelino Kubitschek International Airport (SBBR)

Arrival

Time 2026-05-07 17:39
Airport Rio Branco-Plácido de Castro International Airport (SBRB)
Time Latitude Longitude Altitude Speed Heading
2026-05-07 14:08 -15.86712 -47.91892 3467 ft 0 kts 176°
2026-05-07 14:24 -15.86694 -47.91893 3464 ft 4 kts 176°
2026-05-07 14:24 -15.86667 -47.91895 3466 ft 4 kts 176°
2026-05-07 14:24 -15.86642 -47.91897 3466 ft 4 kts 181°
2026-05-07 14:24 -15.86621 -47.91889 3467 ft 4 kts 238°
2026-05-07 14:25 -15.86615 -47.91865 3467 ft 2 kts 266°
2026-05-07 14:25 -15.86615 -47.91859 3467 ft 0 kts 266°
2026-05-07 14:30 -15.86616 -47.91871 3467 ft 4 kts 266°
2026-05-07 14:30 -15.86620 -47.91936 3466 ft 14 kts 266°
2026-05-07 14:30 -15.86630 -47.92074 3466 ft 23 kts 265°
2026-05-07 14:31 -15.86605 -47.92234 3464 ft 23 kts 296°
2026-05-07 14:31 -15.86535 -47.92352 3462 ft 20 kts 291°
2026-05-07 14:31 -15.86535 -47.92496 3464 ft 20 kts 264°
2026-05-07 14:31 -15.86546 -47.92648 3463 ft 22 kts 266°
2026-05-07 14:32 -15.86535 -47.92755 3462 ft 10 kts 322°
2026-05-07 14:32 -15.86487 -47.92767 3463 ft 0 kts 355°
2026-05-07 14:32 -15.86479 -47.92767 3463 ft 2 kts 355°
2026-05-07 14:32 -15.86455 -47.92769 3463 ft 6 kts 355°
2026-05-07 14:33 -15.86390 -47.92746 3463 ft 9 kts 35°
2026-05-07 14:33 -15.86353 -47.92695 3462 ft 9 kts 80°
2026-05-07 14:33 -15.86351 -47.92678 3463 ft 0 kts 86°
2026-05-07 14:33 -15.86351 -47.92666 3463 ft 15 kts 86°
2026-05-07 14:34 -15.86329 -47.92302 3468 ft 83 kts 86°
2026-05-07 14:34 -15.86275 -47.91493 3466 ft 140 kts 86°
2026-05-07 14:34 -15.86209 -47.90353 3556 ft 176 kts 86°
2026-05-07 14:34 -15.86100 -47.89063 4276 ft 177 kts 83°
2026-05-07 14:35 -15.85985 -47.87785 5093 ft 181 kts 83°
2026-05-07 14:35 -15.85902 -47.86432 5829 ft 197 kts 84°
2026-05-07 14:35 -15.85826 -47.84935 6594 ft 218 kts 83°
2026-05-07 14:35 -15.85737 -47.83274 7260 ft 242 kts 83°
2026-05-07 14:36 -15.85633 -47.81451 7907 ft 263 kts 83°
2026-05-07 14:36 -15.85513 -47.79493 8670 ft 280 kts 82°
2026-05-07 14:36 -15.84995 -47.77561 9509 ft 282 kts 59°
2026-05-07 14:36 -15.83775 -47.76005 9669 ft 280 kts 34°
2026-05-07 14:37 -15.82010 -47.75243 10383 ft 277 kts
2026-05-07 14:37 -15.78086 -47.76028 11590 ft 311 kts 338°
2026-05-07 14:37 -15.76064 -47.76959 12244 ft 322 kts 338°
2026-05-07 14:38 -15.73995 -47.77932 12981 ft 330 kts 338°
2026-05-07 14:38 -15.71885 -47.78939 13770 ft 337 kts 337°
2026-05-07 14:38 -15.69873 -47.80242 14433 ft 348 kts 319°
2026-05-07 14:38 -15.68401 -47.82240 15170 ft 353 kts 296°
2026-05-07 14:39 -15.67696 -47.84680 15836 ft 357 kts 275°
2026-05-07 14:39 -15.67658 -47.87265 16510 ft 360 kts 269°
2026-05-07 14:39 -15.67642 -47.89883 17179 ft 364 kts 269°
2026-05-07 14:39 -15.67630 -47.92520 17863 ft 367 kts 268°
2026-05-07 14:40 -15.67622 -47.95182 18520 ft 370 kts 268°
2026-05-07 14:40 -15.67615 -47.97835 19071 ft 374 kts 268°
2026-05-07 14:40 -15.67608 -48.00547 19620 ft 377 kts 268°
2026-05-07 14:40 -15.67601 -48.03274 20175 ft 379 kts 267°
2026-05-07 14:41 -15.67593 -48.06024 20720 ft 382 kts 267°
2026-05-07 14:41 -15.67585 -48.08789 21239 ft 385 kts 267°
2026-05-07 14:41 -15.67576 -48.11589 21767 ft 388 kts 267°
2026-05-07 14:41 -15.67568 -48.14403 22295 ft 391 kts 267°
2026-05-07 14:42 -15.67558 -48.17233 22811 ft 394 kts 267°
2026-05-07 14:42 -15.67551 -48.20093 23304 ft 398 kts 266°
2026-05-07 14:42 -15.67542 -48.22976 23784 ft 400 kts 266°
2026-05-07 14:42 -15.67534 -48.25840 24203 ft 403 kts 266°
2026-05-07 14:43 -15.67525 -48.28754 24654 ft 404 kts 266°
2026-05-07 14:43 -15.67516 -48.31677 25093 ft 407 kts 266°
2026-05-07 14:43 -15.67506 -48.34618 25542 ft 409 kts 266°
2026-05-07 14:43 -15.67342 -48.37580 25971 ft 415 kts 277°
2026-05-07 14:44 -15.66428 -48.40441 26436 ft 422 kts 294°
2026-05-07 14:44 -15.64754 -48.42958 26876 ft 429 kts 310°
2026-05-07 14:44 -15.62541 -48.45070 27275 ft 434 kts 316°
2026-05-07 14:44 -15.60266 -48.47144 27654 ft 437 kts 316°
2026-05-07 14:45 -15.58744 -48.48515 27914 ft 438 kts 316°
2026-05-07 14:45 -15.56422 -48.50588 28303 ft 441 kts 316°
2026-05-07 14:45 -15.54086 -48.52662 28688 ft 443 kts 317°
2026-05-07 14:45 -15.51737 -48.54742 29070 ft 446 kts 317°
2026-05-07 14:46 -15.49369 -48.56836 29458 ft 448 kts 317°
2026-05-07 14:46 -15.46992 -48.58938 29834 ft 450 kts 316°
2026-05-07 14:46 -15.44609 -48.61045 30177 ft 452 kts 316°
2026-05-07 14:46 -15.42203 -48.63170 30484 ft 454 kts 316°
2026-05-07 14:47 -15.39791 -48.65301 30791 ft 456 kts 316°
2026-05-07 14:47 -15.37370 -48.67439 31097 ft 458 kts 316°
2026-05-07 14:47 -15.34933 -48.69590 31401 ft 460 kts 316°
2026-05-07 14:47 -15.32492 -48.71745 31710 ft 462 kts 316°
2026-05-07 14:48 -15.30039 -48.73909 32035 ft 464 kts 316°
2026-05-07 14:48 -15.27610 -48.76051 32329 ft 466 kts 316°
2026-05-07 14:48 -15.25136 -48.78233 32637 ft 467 kts 316°
2026-05-07 14:48 -15.22653 -48.80421 32954 ft 468 kts 316°
2026-05-07 14:49 -15.20171 -48.82607 33363 ft 467 kts 316°
2026-05-07 14:49 -15.17696 -48.84788 33804 ft 466 kts 316°
2026-05-07 14:49 -15.15222 -48.86966 34048 ft 467 kts 316°
2026-05-07 14:49 -15.12754 -48.89138 34049 ft 464 kts 316°
2026-05-07 14:50 -15.07919 -48.93520 34024 ft 458 kts 308°
2026-05-07 14:50 -15.04263 -48.98841 34025 ft 455 kts 301°
2026-05-07 14:51 -15.00697 -49.04213 34029 ft 455 kts 301°
2026-05-07 14:51 -14.97135 -49.09628 34027 ft 455 kts 301°
2026-05-07 14:52 -14.93569 -49.15047 34024 ft 455 kts 301°
2026-05-07 14:52 -14.90607 -49.19548 34017 ft 455 kts 301°
2026-05-07 14:54 -14.78890 -49.37321 34023 ft 456 kts 301°
2026-05-07 14:54 -14.75728 -49.42110 34017 ft 456 kts 301°
2026-05-07 14:55 -14.72161 -49.47511 34017 ft 455 kts 301°
2026-05-07 14:55 -14.68582 -49.52930 34011 ft 456 kts 301°
2026-05-07 14:56 -14.65012 -49.58340 34007 ft 455 kts 301°
2026-05-07 14:56 -14.61444 -49.63743 34000 ft 455 kts 301°
2026-05-07 14:57 -14.57901 -49.69104 34005 ft 456 kts 301°
2026-05-07 14:57 -14.54330 -49.74507 33999 ft 456 kts 301°
2026-05-07 14:58 -14.50756 -49.79908 33994 ft 455 kts 301°
2026-05-07 14:58 -14.47179 -49.85310 33995 ft 455 kts 301°
2026-05-07 14:59 -14.43603 -49.90707 33989 ft 455 kts 301°
2026-05-07 14:59 -14.40028 -49.96100 33990 ft 455 kts 301°
2026-05-07 15:00 -14.36455 -50.01485 33985 ft 455 kts 301°
2026-05-07 15:00 -14.32877 -50.06875 33985 ft 454 kts 301°
2026-05-07 15:01 -14.29327 -50.12219 33990 ft 454 kts 301°
2026-05-07 15:01 -14.25758 -50.17587 33986 ft 454 kts 301°
2026-05-07 15:02 -14.22189 -50.22953 33983 ft 454 kts 301°
2026-05-07 15:02 -14.18620 -50.28316 33990 ft 453 kts 301°
2026-05-07 15:03 -14.15055 -50.33669 34009 ft 453 kts 301°
2026-05-07 15:03 -14.11481 -50.39031 33987 ft 453 kts 301°
2026-05-07 15:04 -14.07939 -50.44343 33991 ft 452 kts 301°
2026-05-07 15:04 -14.04372 -50.49688 33986 ft 452 kts 301°
2026-05-07 15:05 -14.00804 -50.55031 33985 ft 452 kts 301°
2026-05-07 15:05 -13.97237 -50.60369 33984 ft 452 kts 301°
2026-05-07 15:06 -13.93671 -50.65704 33977 ft 452 kts 301°
2026-05-07 15:06 -13.90123 -50.71007 33979 ft 452 kts 301°
2026-05-07 15:07 -13.86555 -50.76337 33977 ft 452 kts 301°
2026-05-07 15:07 -13.82985 -50.81665 33977 ft 452 kts 301°
2026-05-07 15:08 -13.79414 -50.86993 33972 ft 452 kts 301°
2026-05-07 15:08 -13.75841 -50.92321 33976 ft 452 kts 301°
2026-05-07 15:09 -13.72272 -50.97638 33975 ft 452 kts 301°
2026-05-07 15:09 -13.68699 -51.02960 33975 ft 452 kts 301°
2026-05-07 15:10 -13.65127 -51.08276 33972 ft 452 kts 301°
2026-05-07 15:10 -13.61571 -51.13564 33972 ft 452 kts 301°
2026-05-07 15:11 -13.58000 -51.18873 33976 ft 452 kts 301°
2026-05-07 15:11 -13.54456 -51.24208 33965 ft 450 kts 296°
2026-05-07 15:12 -13.53271 -51.27142 33968 ft 441 kts 281°
2026-05-07 15:12 -13.52552 -51.30209 33969 ft 443 kts 281°
2026-05-07 15:12 -13.51129 -51.36370 33973 ft 443 kts 280°
2026-05-07 15:13 -13.49757 -51.42538 33974 ft 443 kts 280°
2026-05-07 15:13 -13.48393 -51.48712 33974 ft 443 kts 280°
2026-05-07 15:14 -13.47026 -51.54890 33975 ft 443 kts 280°
2026-05-07 15:14 -13.45660 -51.61060 33975 ft 443 kts 280°
2026-05-07 15:15 -13.44299 -51.67196 33973 ft 443 kts 280°
2026-05-07 15:15 -13.42929 -51.73368 33972 ft 443 kts 280°
2026-05-07 15:16 -13.41556 -51.79542 33979 ft 443 kts 280°
2026-05-07 15:16 -13.40183 -51.85715 33980 ft 443 kts 280°
2026-05-07 15:17 -13.38808 -51.91886 33981 ft 443 kts 280°
2026-05-07 15:17 -13.37430 -51.98065 33977 ft 444 kts 280°
2026-05-07 15:18 -13.36084 -52.04250 33983 ft 443 kts 278°
2026-05-07 15:18 -13.34967 -52.10481 33985 ft 443 kts 278°
2026-05-07 15:19 -13.33838 -52.16659 33978 ft 443 kts 278°
2026-05-07 15:19 -13.32697 -52.22891 33979 ft 444 kts 278°
2026-05-07 15:20 -13.31553 -52.29120 33978 ft 444 kts 278°
2026-05-07 15:20 -13.30408 -52.35357 33976 ft 444 kts 278°
2026-05-07 15:21 -13.29262 -52.41584 33976 ft 444 kts 278°
2026-05-07 15:21 -13.28107 -52.47825 33978 ft 445 kts 279°
2026-05-07 15:22 -13.26918 -52.54019 33968 ft 445 kts 279°
2026-05-07 15:22 -13.25720 -52.60261 33978 ft 445 kts 279°
2026-05-07 15:23 -13.24523 -52.66493 33977 ft 445 kts 279°
2026-05-07 15:23 -13.23324 -52.72727 33965 ft 445 kts 279°
2026-05-07 15:24 -13.22123 -52.78963 33973 ft 445 kts 279°
2026-05-07 15:24 -13.20920 -52.85195 33969 ft 445 kts 279°
2026-05-07 15:25 -13.19714 -52.91439 33978 ft 446 kts 279°
2026-05-07 15:25 -13.18516 -52.97636 33969 ft 445 kts 279°
2026-05-07 15:26 -13.17307 -53.03878 33964 ft 445 kts 279°
2026-05-07 15:26 -13.16098 -53.10111 33961 ft 445 kts 279°
2026-05-07 15:27 -13.14887 -53.16348 33966 ft 445 kts 279°
2026-05-07 15:27 -13.13675 -53.22582 33975 ft 445 kts 279°
2026-05-07 15:28 -13.12460 -53.28820 33966 ft 445 kts 279°
2026-05-07 15:28 -13.11246 -53.35049 33969 ft 445 kts 279°
2026-05-07 15:29 -13.10036 -53.41246 33957 ft 445 kts 279°
2026-05-07 15:29 -13.08820 -53.47468 33972 ft 445 kts 278°
2026-05-07 15:30 -13.07601 -53.53687 33970 ft 445 kts 279°
2026-05-07 15:30 -13.06381 -53.59908 33959 ft 444 kts 279°
2026-05-07 15:31 -13.05159 -53.66126 33964 ft 444 kts 279°
2026-05-07 15:31 -13.04143 -53.71292 33953 ft 444 kts 279°
2026-05-07 15:32 -13.02922 -53.77492 33953 ft 444 kts 279°
2026-05-07 15:32 -13.01698 -53.83698 33956 ft 443 kts 279°
2026-05-07 15:33 -13.00475 -53.89892 33965 ft 443 kts 279°
2026-05-07 15:33 -12.99250 -53.96092 33962 ft 443 kts 279°
2026-05-07 15:34 -12.98025 -54.02279 33968 ft 443 kts 279°
2026-05-07 15:34 -12.96805 -54.08435 33964 ft 443 kts 279°
2026-05-07 15:35 -12.95576 -54.14630 33976 ft 443 kts 279°
2026-05-07 15:35 -12.94345 -54.20823 33969 ft 443 kts 279°
2026-05-07 15:36 -12.93114 -54.27016 33969 ft 443 kts 279°
2026-05-07 15:36 -12.91880 -54.33211 33954 ft 443 kts 279°
2026-05-07 15:37 -12.90647 -54.39396 33962 ft 443 kts 279°
2026-05-07 15:37 -12.89410 -54.45592 33965 ft 443 kts 279°
2026-05-07 15:38 -12.88174 -54.51776 33963 ft 443 kts 279°
2026-05-07 15:38 -12.86936 -54.57960 33966 ft 443 kts 279°
2026-05-07 15:39 -12.85703 -54.64106 33957 ft 443 kts 279°
2026-05-07 15:39 -12.84462 -54.70281 33966 ft 443 kts 279°
2026-05-07 15:40 -12.83220 -54.76459 33965 ft 443 kts 279°
2026-05-07 15:40 -12.81976 -54.82639 33965 ft 442 kts 279°
2026-05-07 15:41 -12.80732 -54.88809 33960 ft 442 kts 279°
2026-05-07 15:41 -12.79488 -54.94970 33969 ft 442 kts 279°
2026-05-07 15:42 -12.78242 -55.01136 33970 ft 441 kts 279°
2026-05-07 15:42 -12.76996 -55.07294 33960 ft 441 kts 279°
2026-05-07 15:43 -12.75750 -55.13442 33964 ft 441 kts 279°
2026-05-07 15:43 -12.74501 -55.19596 33963 ft 441 kts 279°
2026-05-07 15:44 -12.73253 -55.25743 33963 ft 441 kts 279°
2026-05-07 15:44 -12.72011 -55.31850 33969 ft 441 kts 279°
2026-05-07 15:45 -12.70760 -55.37993 33964 ft 440 kts 279°
2026-05-07 15:45 -12.69508 -55.44132 33961 ft 440 kts 279°
2026-05-07 15:46 -12.67628 -55.53342 33955 ft 440 kts 279°
2026-05-07 15:47 -12.66373 -55.59481 33965 ft 440 kts 279°
2026-05-07 15:47 -12.65116 -55.65618 33967 ft 440 kts 279°
2026-05-07 15:48 -12.63858 -55.71752 33966 ft 440 kts 279°
2026-05-07 15:48 -12.62606 -55.77855 33970 ft 440 kts 279°
2026-05-07 15:49 -12.61344 -55.83994 33962 ft 440 kts 280°
2026-05-07 15:49 -12.60082 -55.90127 33959 ft 440 kts 280°
2026-05-07 15:50 -12.58819 -55.96263 33966 ft 440 kts 280°
2026-05-07 15:50 -12.57552 -56.02404 33958 ft 440 kts 280°
2026-05-07 15:51 -12.56286 -56.08538 33961 ft 440 kts 280°
2026-05-07 15:51 -12.55025 -56.14637 33956 ft 440 kts 280°
2026-05-07 15:52 -12.53749 -56.20808 33956 ft 440 kts 280°
2026-05-07 15:52 -12.52503 -56.26903 33954 ft 440 kts 280°
2026-05-07 15:53 -12.51252 -56.33040 33950 ft 440 kts 280°
2026-05-07 15:53 -12.50000 -56.39171 33948 ft 440 kts 280°
2026-05-07 15:54 -12.48747 -56.45306 33950 ft 440 kts 280°
2026-05-07 15:54 -12.47492 -56.51439 33946 ft 440 kts 280°
2026-05-07 15:55 -12.46237 -56.57566 33953 ft 440 kts 280°
2026-05-07 15:55 -12.44979 -56.63697 33951 ft 440 kts 280°
2026-05-07 15:56 -12.43721 -56.69826 33954 ft 440 kts 280°
2026-05-07 15:56 -12.42458 -56.75965 33947 ft 440 kts 280°
2026-05-07 15:57 -12.41198 -56.82095 33947 ft 440 kts 280°
2026-05-07 15:57 -12.39937 -56.88227 33956 ft 440 kts 280°
2026-05-07 15:58 -12.38684 -56.94316 33944 ft 440 kts 280°
2026-05-07 15:58 -12.37413 -57.00485 33943 ft 440 kts 280°
2026-05-07 15:59 -12.36155 -57.06583 33949 ft 441 kts 280°
2026-05-07 15:59 -12.34888 -57.12719 33949 ft 441 kts 280°
2026-05-07 16:00 -12.33620 -57.18850 33957 ft 440 kts 280°
2026-05-07 16:00 -12.32351 -57.24981 33948 ft 440 kts 280°
2026-05-07 16:01 -12.31081 -57.31107 33948 ft 441 kts 280°
2026-05-07 16:01 -12.29808 -57.37242 33943 ft 441 kts 280°
2026-05-07 16:02 -12.28542 -57.43336 33948 ft 441 kts 280°
2026-05-07 16:02 -12.27266 -57.49469 33945 ft 441 kts 280°
2026-05-07 16:03 -12.25990 -57.55604 33948 ft 441 kts 280°
2026-05-07 16:03 -12.24712 -57.61733 33947 ft 441 kts 280°
2026-05-07 16:04 -12.23432 -57.67864 33952 ft 441 kts 280°
2026-05-07 16:04 -12.22151 -57.73993 33951 ft 441 kts 280°
2026-05-07 16:05 -12.20867 -57.80129 33945 ft 441 kts 280°
2026-05-07 16:05 -12.19593 -57.86213 33947 ft 441 kts 280°
2026-05-07 16:06 -12.18308 -57.92342 33951 ft 440 kts 280°
2026-05-07 16:06 -12.17022 -57.98466 33942 ft 441 kts 280°
2026-05-07 16:07 -12.15735 -58.04591 33950 ft 441 kts 280°
2026-05-07 16:07 -12.14448 -58.10708 33943 ft 440 kts 280°
2026-05-07 16:08 -12.13154 -58.16836 33954 ft 440 kts 280°
2026-05-07 16:08 -12.11862 -58.22952 33949 ft 440 kts 280°
2026-05-07 16:09 -12.10570 -58.29065 33953 ft 440 kts 280°
2026-05-07 16:09 -12.09274 -58.35184 33954 ft 440 kts 280°
2026-05-07 16:10 -12.07987 -58.41255 33943 ft 440 kts 280°
2026-05-07 16:10 -12.06690 -58.47370 33946 ft 440 kts 280°
2026-05-07 16:11 -12.05389 -58.53491 33950 ft 441 kts 280°
2026-05-07 16:11 -12.04089 -58.59606 33947 ft 441 kts 281°
2026-05-07 16:12 -12.02785 -58.65730 33949 ft 441 kts 281°
2026-05-07 16:12 -12.01480 -58.71849 33948 ft 441 kts 281°
2026-05-07 16:13 -12.00175 -58.77968 33947 ft 441 kts 281°
2026-05-07 16:13 -11.98876 -58.84047 33950 ft 441 kts 281°
2026-05-07 16:14 -11.97568 -58.90165 33949 ft 441 kts 281°
2026-05-07 16:14 -11.96258 -58.96284 33952 ft 441 kts 281°
2026-05-07 16:15 -11.94947 -59.02398 33951 ft 441 kts 281°
2026-05-07 16:15 -11.93636 -59.08513 33953 ft 441 kts 281°
2026-05-07 16:16 -11.92402 -59.14637 33958 ft 440 kts 279°
2026-05-07 16:16 -11.91243 -59.20762 33954 ft 440 kts 279°
2026-05-07 16:17 -11.90076 -59.26899 33959 ft 440 kts 279°
2026-05-07 16:17 -11.88915 -59.32989 33958 ft 439 kts 279°
2026-05-07 16:18 -11.87745 -59.39119 33957 ft 439 kts 279°
2026-05-07 16:18 -11.86577 -59.45236 33955 ft 439 kts 279°
2026-05-07 16:19 -11.85604 -59.50322 33957 ft 439 kts 279°
2026-05-07 16:19 -11.84431 -59.56448 33963 ft 439 kts 279°
2026-05-07 16:20 -11.83256 -59.62574 33959 ft 439 kts 279°
2026-05-07 16:20 -11.82089 -59.68657 33959 ft 440 kts 279°
2026-05-07 16:21 -11.80912 -59.74783 33957 ft 440 kts 279°
2026-05-07 16:21 -11.79734 -59.80905 33958 ft 440 kts 279°
2026-05-07 16:22 -11.78554 -59.87030 33959 ft 440 kts 279°
2026-05-07 16:22 -11.77373 -59.93156 33961 ft 440 kts 279°
2026-05-07 16:23 -11.76192 -59.99281 33959 ft 440 kts 279°
2026-05-07 16:23 -11.75009 -60.05404 33957 ft 440 kts 279°
2026-05-07 16:24 -11.73824 -60.11536 33959 ft 440 kts 280°
2026-05-07 16:24 -11.72647 -60.17616 33953 ft 439 kts 280°
2026-05-07 16:25 -11.71461 -60.23736 33956 ft 439 kts 280°
2026-05-07 16:25 -11.70274 -60.29857 33959 ft 439 kts 280°
2026-05-07 16:26 -11.69088 -60.35965 33959 ft 439 kts 280°
2026-05-07 16:26 -11.67901 -60.42069 33959 ft 439 kts 280°
2026-05-07 16:27 -11.66713 -60.48174 33957 ft 439 kts 280°
2026-05-07 16:27 -11.65522 -60.54282 33953 ft 438 kts 280°
2026-05-07 16:28 -11.64331 -60.60383 33959 ft 438 kts 280°
2026-05-07 16:28 -11.63147 -60.66446 33954 ft 438 kts 280°
2026-05-07 16:29 -11.61954 -60.72543 33953 ft 438 kts 280°
2026-05-07 16:29 -11.60760 -60.78643 33954 ft 438 kts 280°
2026-05-07 16:30 -11.59565 -60.84738 33955 ft 439 kts 280°
2026-05-07 16:30 -11.58368 -60.90837 33956 ft 438 kts 280°
2026-05-07 16:31 -11.57169 -60.96939 33951 ft 439 kts 280°
2026-05-07 16:31 -11.55969 -61.03036 33949 ft 438 kts 280°
2026-05-07 16:32 -11.54769 -61.09130 33948 ft 438 kts 280°
2026-05-07 16:32 -11.53575 -61.15189 33953 ft 438 kts 280°
2026-05-07 16:33 -11.52373 -61.21282 33946 ft 439 kts 280°
2026-05-07 16:33 -11.51167 -61.27383 33949 ft 438 kts 280°
2026-05-07 16:34 -11.49859 -61.33455 33953 ft 438 kts 281°
2026-05-07 16:34 -11.48536 -61.39528 33949 ft 439 kts 281°
2026-05-07 16:35 -11.47211 -61.45612 33949 ft 439 kts 282°
2026-05-07 16:35 -11.45884 -61.51698 33951 ft 440 kts 281°
2026-05-07 16:36 -11.44549 -61.57781 33950 ft 440 kts 282°
2026-05-07 16:36 -11.43210 -61.63877 33951 ft 440 kts 282°
2026-05-07 16:37 -11.41879 -61.69930 33951 ft 440 kts 282°
2026-05-07 16:37 -11.40538 -61.76024 33949 ft 440 kts 282°
2026-05-07 16:38 -11.39194 -61.82122 33951 ft 440 kts 282°
2026-05-07 16:38 -11.37857 -61.88185 33950 ft 441 kts 282°
2026-05-07 16:39 -11.36512 -61.94280 33989 ft 439 kts 282°
2026-05-07 16:39 -11.35180 -62.00306 33961 ft 434 kts 282°
2026-05-07 16:40 -11.33852 -62.06303 33959 ft 434 kts 282°
2026-05-07 16:40 -11.32521 -62.12306 33949 ft 434 kts 282°
2026-05-07 16:41 -11.31188 -62.18311 33953 ft 434 kts 282°
2026-05-07 16:41 -11.29855 -62.24311 33950 ft 434 kts 282°
2026-05-07 16:42 -11.28522 -62.30309 33953 ft 434 kts 282°
2026-05-07 16:42 -11.27198 -62.36259 33948 ft 434 kts 282°
2026-05-07 16:43 -11.25864 -62.42250 33943 ft 433 kts 282°
2026-05-07 16:43 -11.24528 -62.48242 33948 ft 433 kts 282°
2026-05-07 16:44 -11.23191 -62.54232 33950 ft 433 kts 282°
2026-05-07 16:44 -11.21855 -62.60215 33956 ft 433 kts 282°
2026-05-07 16:45 -11.20516 -62.66199 33955 ft 433 kts 282°
2026-05-07 16:45 -11.19177 -62.72184 33950 ft 433 kts 282°
2026-05-07 16:46 -11.17836 -62.78168 33956 ft 433 kts 282°
2026-05-07 16:46 -11.16503 -62.84110 33948 ft 433 kts 282°
2026-05-07 16:47 -11.15159 -62.90100 33957 ft 434 kts 282°
2026-05-07 16:47 -11.13814 -62.96085 33952 ft 434 kts 282°
2026-05-07 16:48 -11.12466 -63.02081 33957 ft 434 kts 282°
2026-05-07 16:48 -11.11119 -63.08065 33955 ft 433 kts 282°
2026-05-07 16:49 -11.09771 -63.14050 33956 ft 433 kts 282°
2026-05-07 16:49 -11.08432 -63.19989 33960 ft 433 kts 282°
2026-05-07 16:50 -11.07084 -63.25965 33959 ft 432 kts 282°
2026-05-07 16:50 -11.05735 -63.31935 33955 ft 432 kts 282°
2026-05-07 16:51 -11.04388 -63.37893 33956 ft 432 kts 282°
2026-05-07 16:51 -11.03040 -63.43849 33964 ft 432 kts 282°
2026-05-07 16:52 -11.01690 -63.49806 33960 ft 431 kts 282°
2026-05-07 16:52 -11.00350 -63.55719 33962 ft 431 kts 282°
2026-05-07 16:53 -10.99001 -63.61661 33967 ft 431 kts 282°
2026-05-07 16:53 -10.97653 -63.67596 33968 ft 430 kts 282°
2026-05-07 16:54 -10.96303 -63.73536 33969 ft 430 kts 282°
2026-05-07 16:54 -10.94954 -63.79463 33967 ft 430 kts 282°
2026-05-07 16:55 -10.93610 -63.85360 33967 ft 430 kts 282°
2026-05-07 16:55 -10.92260 -63.91279 33962 ft 429 kts 282°
2026-05-07 16:56 -10.90911 -63.97192 33965 ft 429 kts 282°
2026-05-07 16:56 -10.88883 -64.06064 33964 ft 429 kts 282°
2026-05-07 16:57 -10.87532 -64.11972 33960 ft 428 kts 282°
2026-05-07 16:57 -10.86178 -64.17882 33966 ft 428 kts 282°
2026-05-07 16:58 -10.84827 -64.23779 33961 ft 428 kts 282°
2026-05-07 16:58 -10.83485 -64.29629 33964 ft 427 kts 282°
2026-05-07 16:59 -10.82134 -64.35511 33958 ft 427 kts 282°
2026-05-07 16:59 -10.80781 -64.41398 33959 ft 427 kts 282°
2026-05-07 17:00 -10.79426 -64.47288 33962 ft 427 kts 282°
2026-05-07 17:00 -10.78071 -64.53175 33959 ft 428 kts 282°
2026-05-07 17:01 -10.76713 -64.59067 33957 ft 428 kts 282°
2026-05-07 17:01 -10.75354 -64.64960 33957 ft 428 kts 282°
2026-05-07 17:02 -10.74001 -64.70819 33960 ft 428 kts 282°
2026-05-07 17:02 -10.72640 -64.76708 33956 ft 428 kts 282°
2026-05-07 17:03 -10.71278 -64.82596 33954 ft 428 kts 282°
2026-05-07 17:03 -10.69915 -64.88485 33960 ft 427 kts 282°
2026-05-07 17:04 -10.68551 -64.94373 33965 ft 427 kts 282°
2026-05-07 17:04 -10.67188 -65.00251 33955 ft 427 kts 282°
2026-05-07 17:05 -10.65825 -65.06120 33958 ft 427 kts 282°
2026-05-07 17:05 -10.64463 -65.11984 33957 ft 426 kts 282°
2026-05-07 17:06 -10.63099 -65.17848 33958 ft 426 kts 282°
2026-05-07 17:06 -10.61743 -65.23673 33965 ft 426 kts 282°
2026-05-07 17:07 -10.60379 -65.29533 33954 ft 426 kts 282°
2026-05-07 17:07 -10.59012 -65.35400 33950 ft 426 kts 282°
2026-05-07 17:08 -10.57874 -65.40270 33954 ft 426 kts 283°
2026-05-07 17:08 -10.55943 -65.47009 33947 ft 426 kts 285°
2026-05-07 17:09 -10.54288 -65.52799 33947 ft 426 kts 285°
2026-05-07 17:09 -10.52634 -65.58588 33946 ft 426 kts 285°
2026-05-07 17:10 -10.51260 -65.63395 33934 ft 426 kts 285°
2026-05-07 17:10 -10.49605 -65.69184 33939 ft 426 kts 285°
2026-05-07 17:11 -10.47948 -65.74974 33937 ft 426 kts 285°
2026-05-07 17:11 -10.46294 -65.80751 33936 ft 426 kts 285°
2026-05-07 17:12 -10.45479 -65.83594 33933 ft 411 kts 285°
2026-05-07 17:12 -10.44690 -65.86348 33643 ft 403 kts 285°
2026-05-07 17:12 -10.43907 -65.89076 33081 ft 403 kts 285°
2026-05-07 17:12 -10.43124 -65.91805 32548 ft 402 kts 285°
2026-05-07 17:13 -10.42353 -65.94494 32088 ft 400 kts 285°
2026-05-07 17:13 -10.41576 -65.97200 31608 ft 398 kts 285°
2026-05-07 17:13 -10.40801 -65.99903 31144 ft 397 kts 285°
2026-05-07 17:13 -10.40029 -66.02589 30682 ft 396 kts 285°
2026-05-07 17:14 -10.39259 -66.05268 30222 ft 395 kts 285°
2026-05-07 17:14 -10.38490 -66.07944 29724 ft 394 kts 285°
2026-05-07 17:14 -10.37722 -66.10616 29224 ft 393 kts 285°
2026-05-07 17:14 -10.36957 -66.13274 28779 ft 390 kts 285°
2026-05-07 17:15 -10.36197 -66.15915 28357 ft 388 kts 285°
2026-05-07 17:15 -10.35452 -66.18503 27942 ft 386 kts 285°
2026-05-07 17:15 -10.34701 -66.21112 27520 ft 384 kts 286°
2026-05-07 17:15 -10.33953 -66.23708 27106 ft 382 kts 286°
2026-05-07 17:16 -10.33207 -66.26297 26696 ft 381 kts 286°
2026-05-07 17:16 -10.32464 -66.28877 26293 ft 380 kts 286°
2026-05-07 17:16 -10.31722 -66.31450 25885 ft 379 kts 286°
2026-05-07 17:16 -10.30980 -66.34023 25482 ft 378 kts 287°
2026-05-07 17:17 -10.30242 -66.36584 25087 ft 377 kts 287°
2026-05-07 17:17 -10.29503 -66.39142 24690 ft 377 kts 287°
2026-05-07 17:17 -10.28766 -66.41698 24295 ft 377 kts 287°
2026-05-07 17:17 -10.28037 -66.44222 23904 ft 377 kts 287°
2026-05-07 17:18 -10.27299 -66.46778 23506 ft 377 kts 287°
2026-05-07 17:18 -10.26560 -66.49334 23037 ft 377 kts 287°
2026-05-07 17:18 -10.25824 -66.51881 22624 ft 375 kts 287°
2026-05-07 17:18 -10.25090 -66.54420 22223 ft 373 kts 287°
2026-05-07 17:19 -10.24361 -66.56944 21843 ft 371 kts 287°
2026-05-07 17:19 -10.23634 -66.59453 21457 ft 370 kts 287°
2026-05-07 17:19 -10.22913 -66.61948 21074 ft 368 kts 287°
2026-05-07 17:19 -10.22191 -66.64439 20692 ft 366 kts 287°
2026-05-07 17:20 -10.21475 -66.66913 20315 ft 365 kts 287°
2026-05-07 17:20 -10.20761 -66.69378 19935 ft 363 kts 287°
2026-05-07 17:20 -10.20048 -66.71842 19559 ft 362 kts 287°
2026-05-07 17:20 -10.19338 -66.74289 19186 ft 361 kts 287°
2026-05-07 17:21 -10.18639 -66.76699 18818 ft 360 kts 287°
2026-05-07 17:21 -10.17934 -66.79133 18449 ft 359 kts 287°
2026-05-07 17:21 -10.17228 -66.81566 18049 ft 358 kts 287°
2026-05-07 17:21 -10.16526 -66.83987 17636 ft 357 kts 287°
2026-05-07 17:22 -10.15827 -66.86396 17256 ft 354 kts 287°
2026-05-07 17:22 -10.15134 -66.88786 16882 ft 352 kts 287°
2026-05-07 17:22 -10.14422 -66.91158 16479 ft 350 kts 291°
2026-05-07 17:22 -10.13461 -66.93423 16104 ft 348 kts 294°
2026-05-07 17:23 -10.12503 -66.95674 15769 ft 346 kts 294°
2026-05-07 17:23 -10.11567 -66.97910 15426 ft 343 kts 293°
2026-05-07 17:23 -10.10642 -67.00140 15068 ft 341 kts 293°
2026-05-07 17:23 -10.09728 -67.02356 14715 ft 339 kts 293°
2026-05-07 17:24 -10.08820 -67.04559 14358 ft 337 kts 293°
2026-05-07 17:24 -10.07928 -67.06725 14015 ft 336 kts 293°
2026-05-07 17:24 -10.07031 -67.08905 13652 ft 334 kts 293°
2026-05-07 17:24 -10.06137 -67.11075 13252 ft 332 kts 293°
2026-05-07 17:25 -10.05250 -67.13230 12894 ft 329 kts 293°
2026-05-07 17:25 -10.04371 -67.15365 12540 ft 326 kts 293°
2026-05-07 17:25 -10.03497 -67.17486 12195 ft 323 kts 293°
2026-05-07 17:25 -10.02634 -67.19581 11858 ft 321 kts 294°
2026-05-07 17:26 -10.01779 -67.21656 11520 ft 318 kts 294°
2026-05-07 17:26 -10.00929 -67.23718 11188 ft 316 kts 294°
2026-05-07 17:26 -10.00086 -67.25764 10857 ft 313 kts 294°
2026-05-07 17:26 -9.99247 -67.27799 10511 ft 311 kts 294°
2026-05-07 17:27 -9.98414 -67.29818 10184 ft 308 kts 294°
2026-05-07 17:27 -9.97609 -67.31772 9976 ft 291 kts 294°
2026-05-07 17:27 -9.96842 -67.33630 9681 ft 280 kts 294°
2026-05-07 17:27 -9.96113 -67.35398 9353 ft 270 kts 295°
2026-05-07 17:28 -9.95393 -67.37142 9066 ft 267 kts 295°
2026-05-07 17:28 -9.94676 -67.38879 8756 ft 266 kts 295°
2026-05-07 17:28 -9.93966 -67.40599 8472 ft 264 kts 294°
2026-05-07 17:28 -9.93260 -67.42309 8191 ft 262 kts 295°
2026-05-07 17:29 -9.92558 -67.44009 7914 ft 261 kts 294°
2026-05-07 17:29 -9.91859 -67.45703 7623 ft 260 kts 295°
2026-05-07 17:29 -9.91173 -67.47361 7337 ft 250 kts 295°
2026-05-07 17:29 -9.90511 -67.48964 7100 ft 245 kts 295°
2026-05-07 17:30 -9.89853 -67.50555 6838 ft 244 kts 295°
2026-05-07 17:30 -9.89204 -67.52126 6572 ft 240 kts 295°
2026-05-07 17:30 -9.88563 -67.53676 6298 ft 235 kts 295°
2026-05-07 17:30 -9.87941 -67.55182 6039 ft 228 kts 295°
2026-05-07 17:31 -9.87335 -67.56650 5783 ft 223 kts 295°
2026-05-07 17:31 -9.86745 -67.58076 5541 ft 221 kts 295°
2026-05-07 17:31 -9.86150 -67.59512 5314 ft 221 kts 295°
2026-05-07 17:31 -9.85556 -67.60947 5093 ft 220 kts 295°
2026-05-07 17:32 -9.84963 -67.62381 4852 ft 219 kts 295°
2026-05-07 17:32 -9.84379 -67.63792 4670 ft 216 kts 295°
2026-05-07 17:32 -9.83798 -67.65198 4593 ft 215 kts 295°
2026-05-07 17:32 -9.83162 -67.66517 4506 ft 203 kts 306°
2026-05-07 17:33 -9.82339 -67.67636 4362 ft 193 kts 309°
2026-05-07 17:33 -9.81548 -67.68696 4221 ft 184 kts 309°
2026-05-07 17:33 -9.80787 -67.69710 4111 ft 179 kts 309°
2026-05-07 17:33 -9.80038 -67.70709 4025 ft 177 kts 309°
2026-05-07 17:34 -9.79293 -67.71705 3933 ft 178 kts 309°
2026-05-07 17:34 -9.78550 -67.72698 3827 ft 174 kts 309°
2026-05-07 17:34 -9.77950 -67.73734 3648 ft 171 kts 287°
2026-05-07 17:34 -9.77961 -67.74937 3472 ft 174 kts 258°
2026-05-07 17:35 -9.78453 -67.76025 3277 ft 162 kts 246°
2026-05-07 17:35 -9.78979 -67.76987 3117 ft 153 kts 244°
2026-05-07 17:35 -9.79534 -67.77889 2979 ft 148 kts 242°
2026-05-07 17:35 -9.80085 -67.78757 2885 ft 146 kts 240°
2026-05-07 17:36 -9.80642 -67.79626 2768 ft 148 kts 242°
2026-05-07 17:36 -9.81198 -67.80500 2634 ft 147 kts 241°
2026-05-07 17:36 -9.81756 -67.81362 2334 ft 145 kts 241°
2026-05-07 17:36 -9.82298 -67.82216 2136 ft 144 kts 242°
2026-05-07 17:37 -9.82843 -67.83061 1934 ft 143 kts 241°
2026-05-07 17:37 -9.83382 -67.83902 1718 ft 140 kts 243°
2026-05-07 17:37 -9.83902 -67.84721 1535 ft 141 kts 239°
2026-05-07 17:37 -9.84443 -67.85549 1386 ft 139 kts 242°
2026-05-07 17:38 -9.84959 -67.86365 1147 ft 136 kts 239°
2026-05-07 17:38 -9.85475 -67.87159 923 ft 132 kts 237°
2026-05-07 17:38 -9.85991 -67.87930 764 ft 133 kts 240°
2026-05-07 17:38 -9.86476 -67.88722 651 ft 135 kts 241°
2026-05-07 17:39 -9.86963 -67.89488 615 ft 108 kts 238°
2026-05-07 17:39 -9.87235 -67.89912 614 ft 48 kts 237°
2026-05-07 17:39 -9.87341 -67.90077 614 ft 17 kts 237°
2026-05-07 17:39 -9.87404 -67.90157 612 ft 7 kts 208°
2026-05-07 17:40 -9.87437 -67.90183 619 ft 4 kts 270°
2026-05-07 17:40 -9.87421 -67.90186 614 ft 6 kts 22°
2026-05-07 17:40 -9.87367 -67.90117 618 ft 18 kts 54°
2026-05-07 17:40 -9.87292 -67.90006 619 ft 20 kts 54°
2026-05-07 17:41 -9.87206 -67.89884 620 ft 17 kts 54°
2026-05-07 17:41 -9.87126 -67.89840 620 ft 14 kts 10°
2026-05-07 17:41 -9.87058 -67.89823 620 ft 10 kts 13°
2026-05-07 17:41 -9.86982 -67.89807 624 ft 13 kts 12°
2026-05-07 17:42 -9.86886 -67.89786 621 ft 15 kts 11°
2026-05-07 17:42 -9.86821 -67.89755 618 ft 9 kts 46°
2026-05-07 17:42 -9.86784 -67.89705 625 ft 9 kts 54°
2026-05-07 17:42 -9.86756 -67.89667 626 ft 4 kts 35°
2026-05-07 17:43 -9.86724 -67.89672 622 ft 6 kts 331°
2026-05-07 17:43 -9.86713 -67.89678 621 ft 2 kts 328°
2026-05-07 17:43 -9.86709 -67.89681 625 ft 0 kts 328°